Location: Quaker Farms
(41.4276°N, 73.1557°W)
Time: 21:02:54
(UTC+00:00)

S-56A Canister/Altair - Pass Details

Date: 22 June 2021
Orbit: 631 x 2501 km, 38.9° (Epoch: 30 July)

Event Time Altitude Azimuth Distance (km) Brightness Sun altitude
Rises 07:14:01 0° 212° (SSW) 3,320 - -17.5°
Reaches altitude 10° 07:17:22 10° 194° (SSW) 2,191 - -17.2°
Exits shadow 07:19:49 17° 164° (SSE) 1,666 8.9 -16.9°
Maximum altitude 07:20:36 18° 151° (SSE) 1,609 8.9 -16.9°
Drops below altitude 10° 07:23:37 10° 108° (ESE) 2,007 9.9 -16.5°
Sets 07:26:30 0° 88° (E) 2,928 11.1 -16.2°
